Regional Weather Roundup
Issued by NWS State College, PA

Home | Current Version | Previous Version | Text Only | Print | Product List | Glossary On
Versions: 1 2 3 4 5 6 7 8 9 10 11 12 13 14 15 16 17 18 19 20 21 22 23 24 25 26 27 28 29 30 31 32 33 34 35 36 37 38 39 40 41 42 43 44 45 46 47 48 49 50
000
ASUS41 KCTP 020203
RWRCTP

REGIONAL WEATHER ROUNDUP
NATIONAL WEATHER SERVICE STATE COLLEGE PA
1000 PM EDT WED JUL 01 2015

Note: "fair" indicates few or no clouds below 12,000 feet with no
significant weather and/or obstructions to visibility.

* = STATION THAT DOES NOT REPORT PRECIPITATION /E.G. RAIN...SNOW...ETC/
    THUNDER OR FOG.

PAZ002>004-007>009-013>016-020>023-029>032-020300-
WESTERN PENNSYLVANIA

CITY           SKY/WX    TMP DP  RH WIND       PRES   REMARKS
ERIE           CLOUDY    66  56  70 CALM      29.92R
MEADVILLE      CLEAR     63  56  78 CALM      29.95R
FRANKLIN*      PTCLDY    61  54  77 CALM      29.97R
NEW CASTLE     MOCLDY    66  63  90 CALM      29.95R
BEAVER COUNTY  NOT AVBL
BUTLER*        CLEAR     63  61  94 CALM      29.96R
PITTSBURGH INT PTCLDY    69  59  70 W3        29.94R
PITTSBURGH     PTCLDY    69  55  60 W5        29.93R
INDIANA*       CLOUDY    64  63  94 CALM      29.98R
LATROBE        CLEAR     64  61  88 CALM      29.94R
WASHINGTON CO* NOT AVBL
$$

PAZ004>006-010>012-017>019-024>028-033>037-041-042-045-046-049>053-020300-
CENTRAL PENNSYLVANIA

CITY           SKY/WX    TMP DP  RH WIND       PRES   REMARKS
BRADFORD       PTCLDY    57  54  89 NW3       29.96R
DUBOIS         MOCLDY    65  56  72 NW3       29.95R
CLEARFIELD     CLOUDY    64  58  80 NW3       29.95R
JOHNSTOWN      CLEAR     63  55  75 W6        29.97R
ALTOONA        PTCLDY    63  57  81 S5        29.96R
STATE COLLEGE  NOT AVBL
WILLIAMSPORT   CLEAR     68  60  75 CALM      29.88R
SELINSGROVE    CLEAR     69  62  78 CALM      29.90R
FT INDIANTOWN  PTCLDY    72  60  64 W6        29.90R
CAPITAL CITY   PTCLDY    71  59  65 SW5       29.90R
HARRISBURG     PTCLDY    69  63  81 CALM      29.90R
YORK           CLEAR     65  62  90 CALM      29.91R
$$

PAZ038>040-043-044-047-048-054-055-060>062-067>071-020300-
EASTERN PENNSYLVANIA

CITY           SKY/WX    TMP DP  RH WIND       PRES   REMARKS
SCRANTON       CLEAR     65  60  84 CALM      29.90R
MOUNT POCONO   MOCLDY    65  58  78 W6        29.93R
ALLENTOWN      MOCLDY    73  60  63 W7        29.88R
QUAKERTOWN*    MOCLDY    68  63  83 CALM      29.91R
READING        PTCLDY    73  59  61 W5        29.88R
LANCASTER      PTCLDY    70  59  68 W5        29.90R
COATESVILLE    MOCLDY    73  59  60 W3        29.92R
POTTSTOWN      MOCLDY    70  60  70 CALM      29.90R
BLUE BELL      CLOUDY    73  63  68 CALM      29.88R
DOYLESTOWN     CLOUDY    73  58  59 W3        29.88R
WILLOW GROVE   NOT AVBL
NORTH PHILA    CLOUDY    77  55  46 SW6       29.89R
PHILADELPHIA   CLOUDY    81  58  45 W7        29.89R
$$


USA.gov is the U.S. government's official web portal to all federal, state and local government web resources and services.